This demonstration page uses our WeatherBlox Daily Observations layout. Learn more.

Left ArrowRight Arrow

Hourly Observations for July 22, 2017

Temp ( °F °C ) Dew Point ( °F °C ) Humidity (%) Winds ( mph kmh ) Pressure ( in mb ) Visibility ( mi km ) Precip ( " mm )
12:53 am 00:53 Clear 80 26.7 75 23.9 85 85 S 5 7 29.74 1007 10 16 0.00 0.00
1:53 am 01:53 Clear 79 26.1 74 23.3 85 85 WNW 3 6 29.74 1007 10 16 0.00 0.00
2:53 am 02:53 Clear 77 25 73 22.8 88 88 Calm 29.74 1007 10 16 0.00 0.00
3:53 am 03:53 Clear 75 23.9 70 21.1 84 84 N 5 7 29.76 1008 10 16 0.00 0.00
4:38 am 04:38 Mostly Clear with Nearby Thunderstorms 75 24 68 20 78 78 NNW 8 13 29.77 1008 10 16 0.00 0.00
4:53 am 04:53 Clear with Nearby Thunderstorms 75 23.9 68 20 79 79 W 3 6 29.79 1009 10 16 0.00 0.00
5:00 am 05:00 Clear 75 24 68 20 78 78 WNW 5 7 29.77 1008 10 16 0.00 0.00
5:10 am 05:10 Clear with Nearby Thunderstorms 75 24 66 19 74 74 N 6 9 29.80 1009 10 16 0.00 0.00
5:32 am 05:32 Clear 73 23 68 20 83 83 N 6 9 29.77 1008 10 16 0.00 0.00
5:53 am 05:53 Clear 74 23.3 68 20 82 82 NE 5 7 29.80 1009 10 16 0.00 0.00
6:53 am 06:53 Sunny 73 22.8 68 20 84 84 N 5 7 29.81 1009 10 16 0.00 0.00
7:53 am 07:53 Sunny 74 23.3 68 20 82 82 NE 5 7 29.83 1010 10 16 0.00 0.00
8:53 am 08:53 Sunny 77 25 69 20.6 77 77 NNE 9 15 29.85 1011 10 16 0.00 0.00
9:53 am 09:53 Sunny 79 26.1 71 21.7 77 77 NNE 8 13 29.86 1011 10 16 0.00 0.00
10:53 am 10:53 Sunny 83 28.3 75 23.9 77 77 NE 10 17 29.86 1011 10 16 0.00 0.00
11:53 am 11:53 Sunny 84 28.9 74 23.3 72 72 NNE 13 20 29.88 1012 10 16 0.00 0.00
12:53 pm 12:53 Sunny 86 30 74 23.3 67 67 NE 10 17 29.88 1012 10 16 0.00 0.00
1:53 pm 13:53 Sunny 85 29.4 74 23.3 70 70 NE 9 15 29.88 1012 10 16 0.00 0.00
2:53 pm 14:53 Sunny 85 29.4 73 22.8 68 68 N 8 13 29.92 1013 10 16 0.00 0.00
3:53 pm 15:53 Mostly Sunny 87 30.6 73 22.8 63 63 NE 7 11 29.91 1013 10 16 0.00 0.00
4:53 pm 16:53 Mostly Sunny 86 30 73 22.8 65 65 N 12 19 29.91 1013 10 16 0.00 0.00
5:53 pm 17:53 Sunny 85 29.4 72 22.2 65 65 NNE 8 13 29.91 1013 10 16 0.00 0.00
6:53 pm 18:53 Sunny 83 28.3 71 21.7 67 67 NNE 14 22 29.92 1013 10 16 0.00 0.00
7:53 pm 19:53 Sunny 80 26.7 71 21.7 74 74 E 8 13 29.89 1012 10 16 0.00 0.00
8:53 pm 20:53 Sunny 79 26.1 71 21.7 77 77 E 8 13 29.90 1012 10 16 0.00 0.00
9:53 pm 21:53 Mostly Clear with Light Rain 79 26.1 69 20.6 72 72 SE 6 9 29.93 1014 10 16 0.00 0.03
10:53 pm 22:53 Clear 76 24.4 70 21.1 82 82 NW 3 6 29.96 1014 10 16 0.00 0.03
11:53 pm 23:53 Clear 74 23.3 70 21.1 88 88 N 6 9 29.94 1014 10 16 0.00 0.00

Powered by AerisWeather